Great Falls, MT

7:51 AM MST on December 03, 2016 (GMT -0700)
Great Falls International

Weather History for KGTF - January, 2014

Change the Weather History Date:

Tuesday, January 28, 2014

  Actual Average Record
Temperature  
Mean Temperature 23 °F 26 °F  
Max Temperature 43 °F 36 °F 61 °F (1931)
Min Temperature 3 °F 16 °F -42 °F (1916)
Degree Days  
Heating Degree Days 42 39  
Month to date heating degree days 944 1116  
Since 1 July heating degree days 4098 4333  
Cooling Degree Days 0 0  
Month to date cooling degree days 0 0  
Year to date cooling degree days 0 0  
Moisture  
Dew Point 6 °F    
Average Humidity 49    
Maximum Humidity 80    
Minimum Humidity 18    
Precipitation  
Precipitation 0.00 in 0.01 in 0.64 in (1959)
Month to date precipitation 0.69 0.46  
Year to date precipitation 0.69 0.46  
Snow  
Snow 0.00 in 0.30 in 7.80 in (1959)
Month to date snowfall 12.2 7.8  
Since 1 July snowfall 35.1 31.0  
Snow Depth 0.00 in    
Sea Level Pressure  
Sea Level Pressure 30.15 in    
Wind  
Wind Speed 16 mph (SW)    
Max Wind Speed 30 mph    
Max Gust Speed 36 mph    
Visibility 10 miles    
Events      
T = Trace of Precipitation, MM = Missing Value Source: NWS Daily Summary

Daily Weather History Graph

Daily Weather History Graph

Search for Another Location

Airport or City:

Trip Planner

Search our weather history database for the weather conditions in past years. The results will help you decide how hot, cold, wet, or windy it might be!

Date:

Astronomy

Jan. 28, 2014 Rise Set
Actual Time 7:56 AM MST 5:21 PM MST
Civil Twilight 7:23 AM MST 5:54 PM MST
Nautical Twilight 6:46 AM MST 6:31 PM MST
Astronomical Twilight 6:09 AM MST 7:07 PM MST
Moon 5:44 AM MST (1/28) 3:12 PM MST (1/28)
Length of Visible Light 10h 31m
Length of Day
9h 24m
Waning Crescent, 7% of the Moon is Illuminated
Jan 28
Waning Crescent
Jan 30
New
Feb 6
First Quarter
Feb 14
Full
Feb 22
Last Quarter

Hourly Weather History & Observations

Time (MST) Temp. Windchill Dew Point Humidity Pressure Visibility Wind Dir Wind Speed Gust Speed Precip Events Conditions
12:53 AM 9.0 °F 0.6 °F -0.0 °F 67% 30.47 in 10.0 mi SSE 4.6 mph - N/A   Clear
1:53 AM 7.0 °F - -0.9 °F 70% 30.43 in 10.0 mi Calm Calm - N/A   Clear
2:53 AM 3.9 °F -5.3 °F -2.0 °F 76% 30.40 in 10.0 mi WSW 4.6 mph - N/A   Clear
3:53 AM 6.1 °F -8.7 °F 1.0 °F 80% 30.38 in 10.0 mi SW 10.4 mph - N/A   Clear
4:53 AM 14.0 °F -0.8 °F 5.0 °F 67% 30.33 in 10.0 mi SSW 13.8 mph - N/A   Clear
5:53 AM 17.1 °F 3.0 °F 5.0 °F 59% 30.32 in 10.0 mi SSW 13.8 mph - N/A   Overcast
6:53 AM 19.9 °F 5.2 °F 6.1 °F 55% 30.28 in 10.0 mi SSW 17.3 mph - N/A   Mostly Cloudy
7:53 AM 21.0 °F 7.1 °F 7.0 °F 55% 30.27 in 10.0 mi SSW 16.1 mph - N/A   Clear
8:53 AM 24.1 °F 10.6 °F 7.0 °F 48% 30.24 in 10.0 mi SSW 17.3 mph - N/A   Clear
9:53 AM 28.9 °F 16.1 °F 7.0 °F 40% 30.22 in 10.0 mi SSW 19.6 mph - N/A   Clear
10:53 AM 34.0 °F 21.0 °F 5.0 °F 30% 30.18 in 10.0 mi SW 26.5 mph 33.4 mph N/A   Clear
11:53 AM 39.0 °F 28.0 °F 1.9 °F 21% 30.13 in 10.0 mi SW 25.3 mph 34.5 mph N/A   Clear
12:53 PM 39.9 °F 29.5 °F 1.9 °F 20% 30.09 in 10.0 mi SW 24.2 mph 32.2 mph N/A   Clear
1:53 PM 42.1 °F 32.1 °F 1.9 °F 19% 30.07 in 10.0 mi SW 25.3 mph 29.9 mph N/A   Clear
2:53 PM 43.0 °F 34.8 °F 3.0 °F 19% 30.04 in 10.0 mi SW 18.4 mph 27.6 mph N/A   Clear
3:53 PM 39.0 °F 30.3 °F 3.0 °F 22% 30.04 in 10.0 mi SW 16.1 mph - N/A   Clear
4:53 PM 36.0 °F 26.3 °F 3.0 °F 25% 30.03 in 10.0 mi SW 16.1 mph - N/A   Clear
5:53 PM 35.1 °F 25.9 °F 5.0 °F 28% 30.02 in 10.0 mi SSW 13.8 mph - N/A   Clear
6:53 PM 35.1 °F 25.2 °F 5.0 °F 28% 29.99 in 10.0 mi SW 16.1 mph - N/A   Clear
7:53 PM 36.0 °F 25.6 °F 7.0 °F 30% 29.99 in 10.0 mi SW 18.4 mph - N/A   Clear
8:53 PM 34.0 °F 25.5 °F 12.9 °F 42% 29.99 in 10.0 mi SW 11.5 mph - N/A   Clear
9:53 PM 36.0 °F 25.3 °F 18.0 °F 48% 29.95 in 10.0 mi SW 19.6 mph 25.3 mph N/A   Clear
10:53 PM 35.1 °F 25.2 °F 19.9 °F 54% 29.93 in 10.0 mi SW 16.1 mph - N/A   Clear
11:53 PM 34.0 °F 23.8 °F 21.9 °F 61% 29.88 in 10.0 mi SW 16.1 mph - N/A   Clear